Regional Weather Roundup
Issued by NWS

Home | Current Version | Previous Version | Text Only | Print | Product List | Glossary Off
Versions: 1 2 3 4 5 6 7 8 9 10 11 12 13 14 15 16 17 18 19 20 21 22 23 24 25 26 27 28 29 30 31 32 33 34 35 36 37 38 39 40 41 42 43 44 45 46 47 48 49 50

000
ASUS43 KFSD 010010
RWRSD

WEATHER ROUNDUP FOR SOUTH DAKOTA
NATIONAL WEATHER SERVICE SIOUX FALLS SD
700 PM CDT WED AUG 31 2016

NOTE: "FAIR" INDICATES FEW OR NO CLOUDS BELOW 12,000 FEET WITH NO
SIGNIFICANT WEATHER AND/OR OBSTRUCTIONS TO VISIBILITY.


SDZ001>005-009-010-012>017-010100-
NORTHWEST AND NORTH CENTRAL SOUTH DAKOTA

CITY           SKY/WX    TMP DP  RH WIND       PRES   REMARKS
BUFFALO          N/A     84  48  28 SE26G39   30.01F
FAITH            N/A     83  55  38 S20G26    30.12F
MOBRIDGE       SUNNY     82  60  47 E15       30.11R
$$

SDZ012>016-024>037-041>051-057-063-072>074-010100-
SOUTHWEST AND SOUTH CENTRAL SOUTH DAKOTA

CITY           SKY/WX    TMP DP  RH WIND       PRES   REMARKS
RAPID CTY ARPT SUNNY     79  55  43 S13       30.14S
PIERRE         SUNNY     83  63  50 SE12      30.11S
CUSTER         SUNNY     70  47  43 SE6       30.28F
ELLSWORTH AFB  SUNNY     80  56  42 S16       30.13S
PHILIP         SUNNY     84  57  39 S13       30.12S
PINE RIDGE     SUNNY     79  55  43 SE13      30.17F
WINNER         FAIR      83  61  47 SE10      30.15F
$$

SDZ004>011-016>023-039-040-010100-
NORTHEAST SOUTH DAKOTA

CITY           SKY/WX    TMP DP  RH WIND       PRES   REMARKS
ABERDEEN       SUNNY     80  63  55 SE6       30.15S
WATERTOWN      MOSUNNY   78  58  49 S6        30.18S
BROOKINGS      MOSUNNY   77  59  53 E9        30.18S
SISSETON         N/A     78  57  48 S3        30.16S
$$

SDZ017-020-022-023-036>040-048>070-010100-
SOUTHEAST SOUTH DAKOTA

CITY           SKY/WX    TMP DP  RH WIND       PRES   REMARKS
SIOUX FALLS    PTSUNNY   78  61  55 E7        30.16F
HURON          SUNNY     81  57  43 S7        30.14S
CHAMBERLAIN    SUNNY     83  65  54 SE7       30.14F
MITCHELL       SUNNY     81  58  45 SE7       30.15S
YANKTON        SUNNY     79  57  47 E7        30.15S
$$

ABBREVIATIONS USED IN REMARKS
   TC - TEMPERATURE IN CELSIUS
  WCI - WIND CHILL INDEX
   HX - HEAT INDEX
  VSB - VISIBILITY





USA.gov is the U.S. government's official web portal to all federal, state and local government web resources and services.